Location: Newark
(35.2672°N, 80.7344°W)
Time: 20:52:24
(UTC+00:00)

Vanguard 2 Rocket - Pass Details

Date: 20 January 2020
Orbit: 554 x 3327 km, 32.9° (Epoch: 22 February)

Event Time Altitude Azimuth Distance (km) Brightness Sun altitude
Rises 10:00:18 0° 212° (SSW) 2,790 - -30.2°
Reaches altitude 10° 10:02:43 10° 195° (SSW) 2,025 - -29.7°
Exits shadow 10:04:32 18° 172° (S) 1,673 8.3 -29.4°
Maximum altitude 10:06:13 22° 144° (SE) 1,645 8.6 -29.0°
Drops below altitude 10° 10:10:52 10° 96° (E) 2,780 10.4 -28.1°
Sets 10:14:54 0° 83° (E) 4,208 11.5 -27.3°
